Location: Bailleul
(50.3375°N, 2.8513°E)
Time: 14:04:24
(UTC+00:00)

Cosmos 2333 Rocket - Visible Passes

Search period start: 22 October 2021 00:00
Search period end: 01 November 2021 00:00
Orbit: 839 x 863 km, 70.8° (Epoch: 22 October)

Date Brightness Start Highest point End Pass type
(mag) Time Alt. Az. Time Alt. Az. Time Alt. Az.
22 Oct 4.9 02:06:32 10° N 02:09:11 13° NNE 02:11:50 10° NE visible
22 Oct 3.6 03:49:56 10° NNW 03:55:16 37° NE 04:00:35 10° ESE visible
22 Oct 2.5 05:34:12 10° NW 05:39:44 50° WSW 05:45:16 10° S visible
23 Oct 4.9 01:54:30 10° N 01:56:57 13° NNE 01:59:36 10° NE visible
23 Oct 3.6 03:37:41 10° NNW 03:43:02 37° NE 03:48:20 10° ESE visible
23 Oct 2.5 05:21:57 10° NW 05:27:31 50° WSW 05:33:02 10° S visible
23 Oct 3.9 18:36:34 10° SSE 18:37:48 15° SSE 18:37:48 15° SSE visible
23 Oct 4.6 20:19:28 10° SW 20:19:57 12° SW 20:19:57 12° SW visible
24 Oct 4.9 01:43:11 12° N 01:44:43 13° NNE 01:47:22 10° NE visible
24 Oct 3.6 03:25:28 10° NNW 03:30:47 37° NE 03:36:07 10° ESE visible
24 Oct 2.4 05:09:43 10° NW 05:15:16 50° WSW 05:20:48 10° S visible
24 Oct 3.3 18:24:19 10° SSE 18:27:35 24° SE 18:27:35 24° SE visible
24 Oct 3.8 20:07:14 10° SW 20:09:43 27° SW 20:09:43 27° SW visible
25 Oct 4.9 01:32:04 13° NNE 01:32:30 13° NNE 01:35:09 10° NE visible
25 Oct 3.6 03:14:08 14° NNW 03:18:34 37° NE 03:23:53 10° ESE visible
25 Oct 2.4 04:57:29 10° NW 05:03:02 50° WSW 05:08:34 10° S visible
25 Oct 3.0 18:12:05 10° SSE 18:16:44 27° ESE 18:17:13 26° E visible
25 Oct 2.9 19:55:00 10° SW 19:59:19 49° WSW 19:59:19 49° WSW visible
26 Oct 5.0 01:21:11 13° NNE 01:21:11 13° NNE 01:22:55 10° NE visible
26 Oct 3.5 03:03:17 22° N 03:06:20 37° NE 03:11:39 10° ESE visible
26 Oct 2.4 04:45:23 11° NW 04:50:48 50° WSW 04:56:19 10° S visible
26 Oct 3.1 17:59:51 10° SSE 18:04:30 27° ESE 18:06:38 21° ENE visible
26 Oct 2.6 19:42:45 10° SW 19:48:22 61° NW 19:48:44 60° NW visible
26 Oct 4.9 21:30:04 10° WNW 21:30:49 12° WNW 21:30:49 12° WNW visible
27 Oct 5.1 01:10:34 10° NE 01:10:34 10° NE 01:10:41 10° NE visible
27 Oct 3.5 02:52:40 32° NNE 02:54:05 37° NE 02:59:25 10° ESE visible
27 Oct 2.4 04:34:47 20° NW 04:38:34 50° WSW 04:44:05 10° S visible
27 Oct 3.1 17:47:36 10° SSE 17:52:16 27° ESE 17:55:48 15° ENE visible
27 Oct 2.6 19:30:31 10° SW 19:36:09 61° NW 19:37:52 43° N visible
27 Oct 4.7 21:17:50 10° WNW 21:19:57 16° NW 21:19:57 16° NW visible
28 Oct 3.5 02:42:17 37° ENE 02:42:17 37° ENE 02:47:11 10° ESE visible
28 Oct 2.4 04:24:24 36° WNW 04:26:20 50° WSW 04:31:51 10° S visible
28 Oct 3.1 17:35:22 10° SSE 17:40:01 27° ESE 17:44:43 10° NE visible
28 Oct 2.6 19:18:17 10° SW 19:23:54 61° NW 19:26:47 29° NNE visible
28 Oct 4.6 21:05:35 10° WNW 21:08:50 18° NW 21:08:50 18° NW visible
29 Oct 4.0 02:32:03 26° E 02:32:03 26° E 02:34:57 10° ESE visible
29 Oct 2.3 04:14:11 49° WSW 04:14:11 49° WSW 04:19:37 10° S visible
29 Oct 3.1 17:23:08 10° SSE 17:27:48 27° ESE 17:32:30 10° NE visible
29 Oct 2.6 19:06:03 10° SW 19:11:40 61° NW 19:15:28 21° NNE visible
29 Oct 4.6 20:53:21 10° WNW 20:57:11 18° NNW 20:57:31 18° NNW visible
30 Oct 4.7 02:21:54 14° ESE 02:21:54 14° ESE 02:22:42 10° ESE visible
30 Oct 3.1 04:04:02 33° SSW 04:04:02 33° SSW 04:07:23 10° S visible
30 Oct 3.2 17:10:53 10° SSE 17:15:33 27° ESE 17:20:16 10° NE visible
30 Oct 2.6 18:53:49 10° SW 18:59:26 61° NW 19:03:59 16° NNE visible
30 Oct 4.5 20:41:07 10° WNW 20:44:58 18° NNW 20:46:02 17° NNW visible
31 Oct 4.1 03:53:52 17° S 03:53:52 17° S 03:55:09 10° S visible
31 Oct 3.2 16:58:39 10° SSE 17:03:20 27° ESE 17:08:02 10° NE visible
31 Oct 2.7 18:41:34 10° SW 18:47:12 61° NW 18:52:23 13° NNE visible
31 Oct 4.5 20:28:53 10° WNW 20:32:43 18° NNW 20:34:24 16° N visible
